星链-1561 (STARLINK-1561 )

导读

STARLINK-1561是美国SpaceX公司星链(Starlink)卫星互联网星座中的一员,于2020年8月7日发射升空。星链计划旨在通过近地轨道卫星群组,为全球偏远、网络基础设施匮乏地区提供低延迟、高速的宽带互联网服务。作为第一代卫星,STARLINK-1561承担着星座组网测试与服务验证任务,是SpaceX构建全球卫星互联网的重要组成部分,推动了全球通信覆盖格局变革。

Basic Information
目录编号:
46056
目录名称:
STARLINK-1561
国际标识:
2020-055AF
轨道中心:
EARTH
卫星名称:
星链-1561
卫星全名:
星链-1561 (STARLINK-1561 )
卫星状态:
已陨落 最后检测时间 2023-11-14
发射日期:
2020-08-07 UTC
国别 :
美国 (US)
星等 :
--
Orbit Information
数据来源 国际轨道数据
星历时间: 2023-11-14T22:20:04+0800
轨道信息已过期943天
半长轴: 6555.814km
偏心率: 0.000827
轨道倾角: 53.006°
近地点辐角 234.309°
升交点赤经 208.441°
平近点角 224.883°
近地点: 172.257km
远地点: 183.101km
周期: 88.044分钟
每日圈数: 16.355466
Detailed Information
固有亮度:
5
最大亮度:
2.5
卫星平台:
Starlink V1.0
覆盖范围:
全球
运营商:
太空探索技术公司
运营商所在国:
美国
制造商(研发单位):
太空探索技术公司
制造商所在国:
美国
使用方式:
暂无
Satellite Introduction
星链(Starlink)计划是由太空探索技术公司(SpaceX)提出的一个巨型低轨卫星互联网星座项目,计划在2019年至2024年间在太空搭建由约1.2万颗卫星组成的“星链”网络,其中1584颗将部署在地球上空550千米处的近地轨道,并从2020年开始工作。该卫星已陨落。